User: anonymous   Login
Location: Unspecified
(0.0000°N, 0.0000°E)
Time: 03:53:08
(UTC+00:00)
Language:

AIST 2 - Orbit

View from above orbital plane
View from above orbital plane
View from above satellite
View from above satellite

Ground track
Ground track

The orbit data is extracted from the following two-line orbital elements,

1 39133U 13015D   24170.89862439  .00005249  00000-0  30422-3 0  9996
2 39133  64.8715  97.1569 0010549 312.4221  47.6009 15.13205447613180
Epoch (UTC): 18 June 2024 21:34:01
Eccentricity: 0.0010549
inclination: 64.8715°
perigee height: 519 km
apogee height: 534 km
right ascension of ascending node: 97.1569°
argument of perigee: 312.4221°
revolutions per day: 15.13205447
mean anomaly at epoch: 47.6009°
orbit number at epoch: 61318

The dashed part of the orbit path shows where the satellite is in the earth's shadow,  

DLR